K9UO Weather Reports


time (UTC)temp
C
wind
direction
speed
KPH
gust
KPH
rain 1hr
cm
rain 24hr
cm
rain mn
cm
humidity
%
barometer
mb
20260504234540 20 203 11.3 20.9 0.00 0.00 0.00 55 1002.3
20260504233040 20 194 11.3 20.9 0.00 0.00 0.00 55 1002.2
20260504231536 20 187 11.3 24.1 0.00 0.00 0.00 56 1002.8
20260504230038 20 205 9.7 24.1 0.00 0.00 0.00 57 1003.2
20260504224534 21 214 14.5 22.5 0.00 0.00 0.00 53 1003.4
20260504223033 21 205 14.5 25.7 0.00 0.00 0.00 53 1003.4
20260504221540 21 213 14.5 33.8 0.00 0.00 0.00 53 1003.6
20260504220032 22 211 16.1 37.0 0.00 0.00 0.00 49 1003.6
20260504214534 22 201 19.3 33.8 0.00 0.05 0.00 46 1003.5
20260504213032 23 227 20.9 32.2 0.00 0.05 0.00 42 1003.0
20260504211528 23 219 17.7 29.0 0.00 0.05 0.00 43 1003.0
20260504210025 22 219 24.1 41.8 0.00 0.05 0.00 44 1003.4
20260504204525 22 205 16.1 25.7 0.00 0.08 0.00 47 1003.5
20260504203025 22 222 22.5 41.8 0.00 0.08 0.00 48 1003.8
20260504201522 22 231 19.3 41.8 0.00 0.08 0.00 49 1003.8
20260504200021 22 245 25.7 41.8 0.00 0.08 0.00 48 1004.2
20260504194519 22 234 25.7 51.5 0.00 0.08 0.00 47 1004.2
20260504193018 22 235 27.4 40.2 0.00 0.08 0.00 48 1004.4
20260504191517 22 216 22.5 46.7 0.00 0.08 0.00 49 1004.4
20260504190016 22 360 25.7 41.8 0.00 0.08 0.00 49 1004.6
20260504184515 22 223 20.9 33.8 0.00 0.08 0.00 50 1004.4
20260504183011 22 210 17.7 33.8 0.00 0.08 0.00 52 1004.6
20260504181509 22 360 16.1 33.8 0.00 0.08 0.00 52 1004.7
20260504180010 22 254 16.1 32.2 0.00 0.08 0.00 51 1004.7
20260504174507 21 360 16.1 35.4 0.00 0.08 0.00 52 1004.8
20260504173005 22 360 17.7 29.0 0.00 0.08 0.00 51 1004.8
20260504171503 21 190 20.9 32.2 0.00 0.08 0.00 52 1004.9
20260504081537 10 204 9.7 16.1 0.00 0.08 0.00 51 1008.3
20260504050012 10 209 6.4 14.5 0.00 0.08 0.00 48 1010.1
20260504044508 11 204 8.0 14.5 0.00 0.08 0.00 51 1010.2
20260504043005 11 206 11.3 20.9 0.00 0.08 0.00 51 1010.3
20260504041502 11 194 6.4 12.9 0.00 0.08 0.00 47 1010.4
20260504034558 11 187 6.4 11.3 0.00 0.08 0.08 43 1010.7
20260504033052 10 178 4.8 9.7 0.00 0.08 0.08 35 1010.9
20260504031549 10 194 3.2 9.7 0.00 0.08 0.08 27 1011.0
20260504030042 10 165 1.6 6.4 0.00 0.08 0.08 25 1011.2
20260504024542 10 157 4.8 9.7 0.00 0.08 0.08 27 1011.4
20260504023033 10 158 4.8 9.7 0.00 0.08 0.08 29 1011.5
20260504021529 10 155 4.8 11.3 0.00 0.08 0.08 28 1011.6
20260504020025 10 157 6.4 11.3 0.00 0.08 0.08 19 1011.6
20260504014520 9 166 1.6 8.0 0.00 0.08 0.08 19 1011.7
20260504013018 10 163 4.8 8.0 0.00 0.08 0.08 27 1011.7
20260504011511 10 162 4.8 9.7 0.00 0.08 0.08 33 1011.8
20260504010007 10 163 4.8 11.3 0.00 0.08 0.08 32 1011.7
20260504004508 9 164 3.2 8.0 0.00 0.08 0.08 28 1011.7
20260504003059 9 159 6.4 11.3 0.00 0.08 0.08 29 1011.8
20260504001554 9 162 6.4 11.3 0.00 0.08 0.08 23 1011.9
20260504000119 9 163 3.2 8.0 0.00 0.08 0.08 19 1012.1